locationName,lineName,date,time,countIn,countOut
���X�X����,2_1_1,2022/9/1,0:00,0,0
���X�X����,2_1_1,2022/9/1,1:00,2,1
���X�X����,2_1_1,2022/9/1,2:00,1,1
���X�X����,2_1_1,2022/9/1,3:00,1,0
���X�X����,2_1_1,2022/9/1,4:00,1,3
���X�X����,2_1_1,2022/9/1,5:00,9,9
���X�X����,2_1_1,2022/9/1,6:00,26,57
���X�X����,2_1_1,2022/9/1,7:00,71,281
���X�X����,2_1_1,2022/9/1,8:00,99,265
���X�X����,2_1_1,2022/9/1,9:00,91,137
���X�X����,2_1_1,2022/9/1,10:00,109,151
���X�X����,2_1_1,2022/9/1,11:00,107,151
���X�X����,2_1_1,2022/9/1,12:00,161,186
���X�X����,2_1_1,2022/9/1,13:00,151,128
���X�X����,2_1_1,2022/9/1,14:00,152,172
���X�X����,2_1_1,2022/9/1,15:00,167,82
���X�X����,2_1_1,2022/9/1,16:00,175,130
���X�X����,2_1_1,2022/9/1,17:00,253,114
���X�X����,2_1_1,2022/9/1,18:00,201,91
���X�X����,2_1_1,2022/9/1,19:00,83,62
���X�X����,2_1_1,2022/9/1,20:00,64,50
���X�X����,2_1_1,2022/9/1,21:00,52,29
���X�X����,2_1_1,2022/9/1,22:00,20,9
���X�X����,2_1_1,2022/9/1,23:00,3,0
���X�X����,2_1_1,2022/9/2,0:00,0,0
���X�X����,2_1_1,2022/9/2,1:00,4,1
���X�X����,2_1_1,2022/9/2,2:00,0,1
���X�X����,2_1_1,2022/9/2,3:00,3,1
���X�X����,2_1_1,2022/9/2,4:00,0,1
���X�X����,2_1_1,2022/9/2,5:00,16,9
���X�X����,2_1_1,2022/9/2,6:00,36,71
���X�X����,2_1_1,2022/9/2,7:00,57,315
���X�X����,2_1_1,2022/9/2,8:00,94,330
���X�X����,2_1_1,2022/9/2,9:00,113,161
���X�X����,2_1_1,2022/9/2,10:00,155,220
���X�X����,2_1_1,2022/9/2,11:00,155,171
���X�X����,2_1_1,2022/9/2,12:00,219,274
���X�X����,2_1_1,2022/9/2,13:00,243,180
���X�X����,2_1_1,2022/9/2,14:00,158,165
���X�X����,2_1_1,2022/9/2,15:00,300,132
���X�X����,2_1_1,2022/9/2,16:00,274,164
���X�X����,2_1_1,2022/9/2,17:00,324,147
���X�X����,2_1_1,2022/9/2,18:00,296,135
���X�X����,2_1_1,2022/9/2,19:00,104,82
���X�X����,2_1_1,2022/9/2,20:00,60,46
���X�X����,2_1_1,2022/9/2,21:00,74,23
���X�X����,2_1_1,2022/9/2,22:00,18,8
���X�X����,2_1_1,2022/9/2,23:00,7,3
���X�X����,2_1_1,2022/9/3,0:00,3,1
���X�X����,2_1_1,2022/9/3,1:00,1,0
���X�X����,2_1_1,2022/9/3,2:00,3,0
���X�X����,2_1_1,2022/9/3,3:00,1,1
���X�X����,2_1_1,2022/9/3,4:00,0,0
���X�X����,2_1_1,2022/9/3,5:00,8,14
���X�X����,2_1_1,2022/9/3,6:00,28,22
���X�X����,2_1_1,2022/9/3,7:00,52,97
���X�X����,2_1_1,2022/9/3,8:00,78,148
���X�X����,2_1_1,2022/9/3,9:00,98,154
���X�X����,2_1_1,2022/9/3,10:00,140,274
���X�X����,2_1_1,2022/9/3,11:00,221,307
���X�X����,2_1_1,2022/9/3,12:00,297,347
���X�X����,2_1_1,2022/9/3,13:00,308,293
���X�X����,2_1_1,2022/9/3,14:00,332,272
���X�X����,2_1_1,2022/9/3,15:00,310,258
���X�X����,2_1_1,2022/9/3,16:00,277,263
���X�X����,2_1_1,2022/9/3,17:00,252,205
���X�X����,2_1_1,2022/9/3,18:00,154,123
���X�X����,2_1_1,2022/9/3,19:00,140,109
���X�X����,2_1_1,2022/9/3,20:00,120,58
���X�X����,2_1_1,2022/9/3,21:00,85,37
���X�X����,2_1_1,2022/9/3,22:00,13,6
���X�X����,2_1_1,2022/9/3,23:00,13,2
���X�X����,2_1_1,2022/9/4,0:00,6,1
���X�X����,2_1_1,2022/9/4,1:00,4,0
���X�X����,2_1_1,2022/9/4,2:00,1,1
���X�X����,2_1_1,2022/9/4,3:00,2,0
���X�X����,2_1_1,2022/9/4,4:00,1,4
���X�X����,2_1_1,2022/9/4,5:00,7,11
���X�X����,2_1_1,2022/9/4,6:00,39,24
���X�X����,2_1_1,2022/9/4,7:00,59,76
���X�X����,2_1_1,2022/9/4,8:00,75,104
���X�X����,2_1_1,2022/9/4,9:00,127,190
���X�X����,2_1_1,2022/9/4,10:00,161,308
���X�X����,2_1_1,2022/9/4,11:00,262,398
���X�X����,2_1_1,2022/9/4,12:00,356,462
���X�X����,2_1_1,2022/9/4,13:00,455,384
���X�X����,2_1_1,2022/9/4,14:00,421,359
���X�X����,2_1_1,2022/9/4,15:00,427,283
���X�X����,2_1_1,2022/9/4,16:00,346,168
���X�X����,2_1_1,2022/9/4,17:00,233,152
���X�X����,2_1_1,2022/9/4,18:00,129,104
���X�X����,2_1_1,2022/9/4,19:00,92,84
���X�X����,2_1_1,2022/9/4,20:00,67,60
���X�X����,2_1_1,2022/9/4,21:00,41,29
���X�X����,2_1_1,2022/9/4,22:00,8,5
���X�X����,2_1_1,2022/9/4,23:00,9,0
���X�X����,2_1_1,2022/9/5,0:00,0,2
���X�X����,2_1_1,2022/9/5,1:00,2,1
���X�X����,2_1_1,2022/9/5,2:00,0,1
���X�X����,2_1_1,2022/9/5,3:00,4,0
���X�X����,2_1_1,2022/9/5,4:00,4,4
���X�X����,2_1_1,2022/9/5,5:00,11,11
���X�X����,2_1_1,2022/9/5,6:00,34,54
���X�X����,2_1_1,2022/9/5,7:00,91,412
���X�X����,2_1_1,2022/9/5,8:00,90,374
���X�X����,2_1_1,2022/9/5,9:00,141,188
���X�X����,2_1_1,2022/9/5,10:00,166,279
���X�X����,2_1_1,2022/9/5,11:00,228,302
���X�X����,2_1_1,2022/9/5,12:00,253,308
���X�X����,2_1_1,2022/9/5,13:00,200,197
���X�X����,2_1_1,2022/9/5,14:00,245,168
���X�X����,2_1_1,2022/9/5,15:00,236,142
���X�X����,2_1_1,2022/9/5,16:00,269,139
���X�X����,2_1_1,2022/9/5,17:00,359,121
���X�X����,2_1_1,2022/9/5,18:00,281,125
���X�X����,2_1_1,2022/9/5,19:00,86,90
���X�X����,2_1_1,2022/9/5,20:00,92,70
���X�X����,2_1_1,2022/9/5,21:00,70,45
���X�X����,2_1_1,2022/9/5,22:00,17,4
���X�X����,2_1_1,2022/9/5,23:00,3,3
���X�X����,2_1_1,2022/9/6,0:00,6,4
���X�X����,2_1_1,2022/9/6,1:00,3,1
���X�X����,2_1_1,2022/9/6,2:00,1,2
���X�X����,2_1_1,2022/9/6,3:00,2,1
���X�X����,2_1_1,2022/9/6,4:00,2,0
���X�X����,2_1_1,2022/9/6,5:00,9,5
���X�X����,2_1_1,2022/9/6,6:00,37,34
���X�X����,2_1_1,2022/9/6,7:00,55,176
���X�X����,2_1_1,2022/9/6,8:00,57,185
���X�X����,2_1_1,2022/9/6,9:00,106,119
���X�X����,2_1_1,2022/9/6,10:00,131,155
���X�X����,2_1_1,2022/9/6,11:00,122,183
���X�X����,2_1_1,2022/9/6,12:00,120,222
���X�X����,2_1_1,2022/9/6,13:00,153,128
���X�X����,2_1_1,2022/9/6,14:00,132,148
���X�X����,2_1_1,2022/9/6,15:00,183,124
���X�X����,2_1_1,2022/9/6,16:00,161,90
���X�X����,2_1_1,2022/9/6,17:00,219,113
���X�X����,2_1_1,2022/9/6,18:00,220,138
���X�X����,2_1_1,2022/9/6,19:00,105,99
���X�X����,2_1_1,2022/9/6,20:00,48,43
���X�X����,2_1_1,2022/9/6,21:00,60,30
���X�X����,2_1_1,2022/9/6,22:00,3,3
���X�X����,2_1_1,2022/9/6,23:00,5,1
���X�X����,2_1_1,2022/9/7,0:00,5,1
���X�X����,2_1_1,2022/9/7,1:00,1,1
���X�X����,2_1_1,2022/9/7,2:00,1,0
���X�X����,2_1_1,2022/9/7,3:00,2,1
���X�X����,2_1_1,2022/9/7,4:00,4,0
���X�X����,2_1_1,2022/9/7,5:00,10,12
���X�X����,2_1_1,2022/9/7,6:00,33,58
���X�X����,2_1_1,2022/9/7,7:00,81,351
���X�X����,2_1_1,2022/9/7,8:00,101,365
���X�X����,2_1_1,2022/9/7,9:00,127,157
���X�X����,2_1_1,2022/9/7,10:00,152,221
���X�X����,2_1_1,2022/9/7,11:00,154,252
���X�X����,2_1_1,2022/9/7,12:00,229,303
���X�X����,2_1_1,2022/9/7,13:00,231,232
���X�X����,2_1_1,2022/9/7,14:00,227,232
���X�X����,2_1_1,2022/9/7,15:00,317,119
���X�X����,2_1_1,2022/9/7,16:00,407,144
���X�X����,2_1_1,2022/9/7,17:00,274,134
���X�X����,2_1_1,2022/9/7,18:00,169,164
���X�X����,2_1_1,2022/9/7,19:00,96,79
���X�X����,2_1_1,2022/9/7,20:00,100,61
���X�X����,2_1_1,2022/9/7,21:00,81,36
���X�X����,2_1_1,2022/9/7,22:00,6,3
���X�X����,2_1_1,2022/9/7,23:00,2,0
���X�X����,2_1_1,2022/9/8,0:00,3,0
���X�X����,2_1_1,2022/9/8,1:00,1,0
���X�X����,2_1_1,2022/9/8,2:00,1,1
���X�X����,2_1_1,2022/9/8,3:00,1,0
���X�X����,2_1_1,2022/9/8,4:00,4,3
���X�X����,2_1_1,2022/9/8,5:00,11,10
���X�X����,2_1_1,2022/9/8,6:00,44,94
���X�X����,2_1_1,2022/9/8,7:00,88,357
���X�X����,2_1_1,2022/9/8,8:00,119,358
���X�X����,2_1_1,2022/9/8,9:00,132,206
���X�X����,2_1_1,2022/9/8,10:00,153,215
���X�X����,2_1_1,2022/9/8,11:00,198,253
���X�X����,2_1_1,2022/9/8,12:00,173,264
���X�X����,2_1_1,2022/9/8,13:00,216,220
���X�X����,2_1_1,2022/9/8,14:00,233,221
���X�X����,2_1_1,2022/9/8,15:00,209,164
���X�X����,2_1_1,2022/9/8,16:00,280,144
���X�X����,2_1_1,2022/9/8,17:00,331,144
���X�X����,2_1_1,2022/9/8,18:00,300,169
���X�X����,2_1_1,2022/9/8,19:00,114,100
���X�X����,2_1_1,2022/9/8,20:00,99,30
���X�X����,2_1_1,2022/9/8,21:00,89,38
���X�X����,2_1_1,2022/9/8,22:00,13,4
���X�X����,2_1_1,2022/9/8,23:00,7,2
���X�X����,2_1_1,2022/9/9,0:00,4,0
���X�X����,2_1_1,2022/9/9,1:00,1,1
���X�X����,2_1_1,2022/9/9,2:00,2,1
���X�X����,2_1_1,2022/9/9,3:00,0,0
���X�X����,2_1_1,2022/9/9,4:00,4,2
���X�X����,2_1_1,2022/9/9,5:00,16,16
���X�X����,2_1_1,2022/9/9,6:00,39,50
���X�X����,2_1_1,2022/9/9,7:00,72,354
���X�X����,2_1_1,2022/9/9,8:00,102,380
���X�X����,2_1_1,2022/9/9,9:00,139,206
���X�X����,2_1_1,2022/9/9,10:00,163,281
���X�X����,2_1_1,2022/9/9,11:00,217,325
���X�X����,2_1_1,2022/9/9,12:00,247,323
���X�X����,2_1_1,2022/9/9,13:00,257,218
���X�X����,2_1_1,2022/9/9,14:00,322,211
���X�X����,2_1_1,2022/9/9,15:00,292,194
���X�X����,2_1_1,2022/9/9,16:00,323,182
���X�X����,2_1_1,2022/9/9,17:00,315,163
���X�X����,2_1_1,2022/9/9,18:00,312,146
���X�X����,2_1_1,2022/9/9,19:00,114,110
���X�X����,2_1_1,2022/9/9,20:00,110,73
���X�X����,2_1_1,2022/9/9,21:00,83,46
���X�X����,2_1_1,2022/9/9,22:00,15,9
���X�X����,2_1_1,2022/9/9,23:00,8,1
���X�X����,2_1_1,2022/9/10,0:00,6,3
���X�X����,2_1_1,2022/9/10,1:00,8,1
���X�X����,2_1_1,2022/9/10,2:00,3,2
���X�X����,2_1_1,2022/9/10,3:00,1,2
���X�X����,2_1_1,2022/9/10,4:00,2,4
���X�X����,2_1_1,2022/9/10,5:00,11,3
���X�X����,2_1_1,2022/9/10,6:00,33,32
���X�X����,2_1_1,2022/9/10,7:00,56,121
���X�X����,2_1_1,2022/9/10,8:00,78,165
���X�X����,2_1_1,2022/9/10,9:00,135,242
���X�X����,2_1_1,2022/9/10,10:00,170,452
���X�X����,2_1_1,2022/9/10,11:00,270,457
���X�X����,2_1_1,2022/9/10,12:00,335,434
���X�X����,2_1_1,2022/9/10,13:00,404,406
���X�X����,2_1_1,2022/9/10,14:00,459,353
���X�X����,2_1_1,2022/9/10,15:00,470,296
���X�X����,2_1_1,2022/9/10,16:00,323,242
���X�X����,2_1_1,2022/9/10,17:00,301,219
���X�X����,2_1_1,2022/9/10,18:00,216,181
���X�X����,2_1_1,2022/9/10,19:00,123,133
���X�X����,2_1_1,2022/9/10,20:00,113,96
���X�X����,2_1_1,2022/9/10,21:00,115,42
���X�X����,2_1_1,2022/9/10,22:00,20,7
���X�X����,2_1_1,2022/9/10,23:00,13,0
���X�X����,2_1_1,2022/9/11,0:00,5,1
���X�X����,2_1_1,2022/9/11,1:00,3,0
���X�X����,2_1_1,2022/9/11,2:00,3,4
���X�X����,2_1_1,2022/9/11,3:00,2,3
���X�X����,2_1_1,2022/9/11,4:00,1,2
���X�X����,2_1_1,2022/9/11,5:00,15,7
���X�X����,2_1_1,2022/9/11,6:00,31,29
���X�X����,2_1_1,2022/9/11,7:00,61,70
���X�X����,2_1_1,2022/9/11,8:00,81,112
���X�X����,2_1_1,2022/9/11,9:00,115,206
���X�X����,2_1_1,2022/9/11,10:00,179,330
���X�X����,2_1_1,2022/9/11,11:00,231,389
���X�X����,2_1_1,2022/9/11,12:00,366,405
���X�X����,2_1_1,2022/9/11,13:00,459,406
���X�X����,2_1_1,2022/9/11,14:00,411,361
���X�X����,2_1_1,2022/9/11,15:00,376,277
���X�X����,2_1_1,2022/9/11,16:00,308,224
���X�X����,2_1_1,2022/9/11,17:00,230,175
���X�X����,2_1_1,2022/9/11,18:00,169,120
���X�X����,2_1_1,2022/9/11,19:00,120,62
���X�X����,2_1_1,2022/9/11,20:00,59,65
���X�X����,2_1_1,2022/9/11,21:00,57,31
���X�X����,2_1_1,2022/9/11,22:00,13,4
���X�X����,2_1_1,2022/9/11,23:00,3,2
���X�X����,2_1_1,2022/9/12,0:00,4,1
���X�X����,2_1_1,2022/9/12,1:00,1,4
���X�X����,2_1_1,2022/9/12,2:00,0,0
���X�X����,2_1_1,2022/9/12,3:00,0,1
���X�X����,2_1_1,2022/9/12,4:00,4,1
���X�X����,2_1_1,2022/9/12,5:00,12,10
���X�X����,2_1_1,2022/9/12,6:00,38,71
���X�X����,2_1_1,2022/9/12,7:00,63,345
���X�X����,2_1_1,2022/9/12,8:00,99,330
���X�X����,2_1_1,2022/9/12,9:00,158,204
���X�X����,2_1_1,2022/9/12,10:00,174,259
���X�X����,2_1_1,2022/9/12,11:00,197,252
���X�X����,2_1_1,2022/9/12,12:00,246,320
���X�X����,2_1_1,2022/9/12,13:00,240,249
���X�X����,2_1_1,2022/9/12,14:00,294,209
���X�X����,2_1_1,2022/9/12,15:00,381,172
���X�X����,2_1_1,2022/9/12,16:00,326,129
���X�X����,2_1_1,2022/9/12,17:00,323,143
���X�X����,2_1_1,2022/9/12,18:00,255,157
���X�X����,2_1_1,2022/9/12,19:00,105,79
���X�X����,2_1_1,2022/9/12,20:00,84,72
���X�X����,2_1_1,2022/9/12,21:00,64,28
���X�X����,2_1_1,2022/9/12,22:00,9,2
���X�X����,2_1_1,2022/9/12,23:00,7,2
���X�X����,2_1_1,2022/9/13,0:00,7,1
���X�X����,2_1_1,2022/9/13,1:00,3,2
���X�X����,2_1_1,2022/9/13,2:00,1,1
���X�X����,2_1_1,2022/9/13,3:00,1,3
���X�X����,2_1_1,2022/9/13,4:00,3,0
���X�X����,2_1_1,2022/9/13,5:00,6,6
���X�X����,2_1_1,2022/9/13,6:00,38,37
���X�X����,2_1_1,2022/9/13,7:00,78,391
���X�X����,2_1_1,2022/9/13,8:00,113,381
���X�X����,2_1_1,2022/9/13,9:00,123,151
���X�X����,2_1_1,2022/9/13,10:00,145,207
���X�X����,2_1_1,2022/9/13,11:00,179,290
���X�X����,2_1_1,2022/9/13,12:00,214,300
���X�X����,2_1_1,2022/9/13,13:00,241,185
���X�X����,2_1_1,2022/9/13,14:00,218,217
���X�X����,2_1_1,2022/9/13,15:00,201,137
���X�X����,2_1_1,2022/9/13,16:00,333,145
���X�X����,2_1_1,2022/9/13,17:00,363,155
���X�X����,2_1_1,2022/9/13,18:00,303,136
���X�X����,2_1_1,2022/9/13,19:00,103,98
���X�X����,2_1_1,2022/9/13,20:00,90,46
���X�X����,2_1_1,2022/9/13,21:00,66,40
���X�X����,2_1_1,2022/9/13,22:00,10,6
���X�X����,2_1_1,2022/9/13,23:00,3,2
���X�X����,2_1_1,2022/9/14,0:00,2,1
���X�X����,2_1_1,2022/9/14,1:00,2,0
���X�X����,2_1_1,2022/9/14,2:00,0,0
���X�X����,2_1_1,2022/9/14,3:00,2,2
���X�X����,2_1_1,2022/9/14,4:00,2,0
���X�X����,2_1_1,2022/9/14,5:00,10,15
���X�X����,2_1_1,2022/9/14,6:00,40,98
���X�X����,2_1_1,2022/9/14,7:00,85,339
���X�X����,2_1_1,2022/9/14,8:00,101,354
���X�X����,2_1_1,2022/9/14,9:00,114,180
���X�X����,2_1_1,2022/9/14,10:00,121,228
���X�X����,2_1_1,2022/9/14,11:00,204,283
���X�X����,2_1_1,2022/9/14,12:00,219,285
���X�X����,2_1_1,2022/9/14,13:00,271,204
���X�X����,2_1_1,2022/9/14,14:00,205,151
���X�X����,2_1_1,2022/9/14,15:00,329,184
���X�X����,2_1_1,2022/9/14,16:00,432,172
���X�X����,2_1_1,2022/9/14,17:00,334,126
���X�X����,2_1_1,2022/9/14,18:00,217,165
���X�X����,2_1_1,2022/9/14,19:00,88,83
���X�X����,2_1_1,2022/9/14,20:00,82,47
���X�X����,2_1_1,2022/9/14,21:00,77,34
���X�X����,2_1_1,2022/9/14,22:00,8,2
���X�X����,2_1_1,2022/9/14,23:00,1,1
���X�X����,2_1_1,2022/9/15,0:00,3,1
���X�X����,2_1_1,2022/9/15,1:00,1,0
���X�X����,2_1_1,2022/9/15,2:00,0,1
���X�X����,2_1_1,2022/9/15,3:00,1,2
���X�X����,2_1_1,2022/9/15,4:00,5,0
���X�X����,2_1_1,2022/9/15,5:00,11,6
���X�X����,2_1_1,2022/9/15,6:00,38,42
���X�X����,2_1_1,2022/9/15,7:00,92,448
���X�X����,2_1_1,2022/9/15,8:00,118,312
���X�X����,2_1_1,2022/9/15,9:00,122,180
���X�X����,2_1_1,2022/9/15,10:00,188,286
���X�X����,2_1_1,2022/9/15,11:00,206,272
���X�X����,2_1_1,2022/9/15,12:00,232,302
���X�X����,2_1_1,2022/9/15,13:00,224,224
���X�X����,2_1_1,2022/9/15,14:00,224,167
���X�X����,2_1_1,2022/9/15,15:00,273,104
���X�X����,2_1_1,2022/9/15,16:00,358,180
���X�X����,2_1_1,2022/9/15,17:00,330,130
���X�X����,2_1_1,2022/9/15,18:00,258,156
���X�X����,2_1_1,2022/9/15,19:00,95,116
���X�X����,2_1_1,2022/9/15,20:00,88,61
���X�X����,2_1_1,2022/9/15,21:00,80,28
���X�X����,2_1_1,2022/9/15,22:00,18,1
���X�X����,2_1_1,2022/9/15,23:00,1,0
���X�X����,2_1_1,2022/9/16,0:00,3,1
���X�X����,2_1_1,2022/9/16,1:00,4,2
���X�X����,2_1_1,2022/9/16,2:00,6,1
���X�X����,2_1_1,2022/9/16,3:00,2,0
���X�X����,2_1_1,2022/9/16,4:00,3,2
���X�X����,2_1_1,2022/9/16,5:00,9,16
���X�X����,2_1_1,2022/9/16,6:00,38,46
���X�X����,2_1_1,2022/9/16,7:00,84,374
���X�X����,2_1_1,2022/9/16,8:00,118,356
���X�X����,2_1_1,2022/9/16,9:00,126,201
���X�X����,2_1_1,2022/9/16,10:00,197,265
���X�X����,2_1_1,2022/9/16,11:00,174,292
���X�X����,2_1_1,2022/9/16,12:00,235,289
���X�X����,2_1_1,2022/9/16,13:00,253,248
���X�X����,2_1_1,2022/9/16,14:00,265,219
���X�X����,2_1_1,2022/9/16,15:00,328,188
���X�X����,2_1_1,2022/9/16,16:00,352,173
���X�X����,2_1_1,2022/9/16,17:00,337,170
���X�X����,2_1_1,2022/9/16,18:00,324,165
���X�X����,2_1_1,2022/9/16,19:00,142,108
���X�X����,2_1_1,2022/9/16,20:00,86,82
���X�X����,2_1_1,2022/9/16,21:00,126,88
���X�X����,2_1_1,2022/9/16,22:00,20,8
���X�X����,2_1_1,2022/9/16,23:00,12,5
���X�X����,2_1_1,2022/9/17,0:00,6,5
���X�X����,2_1_1,2022/9/17,1:00,7,2
���X�X����,2_1_1,2022/9/17,2:00,1,0
���X�X����,2_1_1,2022/9/17,3:00,1,2
���X�X����,2_1_1,2022/9/17,4:00,3,0
���X�X����,2_1_1,2022/9/17,5:00,7,5
���X�X����,2_1_1,2022/9/17,6:00,35,46
���X�X����,2_1_1,2022/9/17,7:00,64,109
���X�X����,2_1_1,2022/9/17,8:00,99,171
���X�X����,2_1_1,2022/9/17,9:00,121,240
���X�X����,2_1_1,2022/9/17,10:00,196,423
���X�X����,2_1_1,2022/9/17,11:00,314,533
���X�X����,2_1_1,2022/9/17,12:00,371,514
���X�X����,2_1_1,2022/9/17,13:00,465,477
���X�X����,2_1_1,2022/9/17,14:00,438,384
���X�X����,2_1_1,2022/9/17,15:00,417,331
���X�X����,2_1_1,2022/9/17,16:00,415,245
���X�X����,2_1_1,2022/9/17,17:00,347,276
���X�X����,2_1_1,2022/9/17,18:00,255,195
���X�X����,2_1_1,2022/9/17,19:00,126,133
���X�X����,2_1_1,2022/9/17,20:00,100,59
���X�X����,2_1_1,2022/9/17,21:00,72,49
���X�X����,2_1_1,2022/9/17,22:00,12,1
���X�X����,2_1_1,2022/9/17,23:00,13,4
���X�X����,2_1_1,2022/9/18,0:00,1,1
���X�X����,2_1_1,2022/9/18,1:00,3,0
���X�X����,2_1_1,2022/9/18,2:00,2,0
���X�X����,2_1_1,2022/9/18,3:00,2,0
���X�X����,2_1_1,2022/9/18,4:00,3,0
���X�X����,2_1_1,2022/9/18,5:00,6,3
���X�X����,2_1_1,2022/9/18,6:00,26,28
���X�X����,2_1_1,2022/9/18,7:00,35,68
���X�X����,2_1_1,2022/9/18,8:00,61,92
���X�X����,2_1_1,2022/9/18,9:00,116,194
���X�X����,2_1_1,2022/9/18,10:00,181,363
���X�X����,2_1_1,2022/9/18,11:00,283,430
���X�X����,2_1_1,2022/9/18,12:00,389,372
���X�X����,2_1_1,2022/9/18,13:00,429,381
���X�X����,2_1_1,2022/9/18,14:00,338,293
���X�X����,2_1_1,2022/9/18,15:00,253,191
���X�X����,2_1_1,2022/9/18,16:00,240,148
���X�X����,2_1_1,2022/9/18,17:00,121,110
���X�X����,2_1_1,2022/9/18,18:00,48,65
���X�X����,2_1_1,2022/9/18,19:00,46,43
���X�X����,2_1_1,2022/9/18,20:00,34,36
���X�X����,2_1_1,2022/9/18,21:00,34,21
���X�X����,2_1_1,2022/9/18,22:00,14,13
���X�X����,2_1_1,2022/9/18,23:00,7,6
���X�X����,2_1_1,2022/9/19,0:00,8,2
���X�X����,2_1_1,2022/9/19,1:00,7,10
���X�X����,2_1_1,2022/9/19,2:00,12,7
���X�X����,2_1_1,2022/9/19,3:00,5,9
���X�X����,2_1_1,2022/9/19,4:00,8,4
���X�X����,2_1_1,2022/9/19,5:00,13,10
���X�X����,2_1_1,2022/9/19,6:00,21,12
���X�X����,2_1_1,2022/9/19,7:00,29,27
���X�X����,2_1_1,2022/9/19,8:00,29,24
���X�X����,2_1_1,2022/9/19,9:00,32,40
���X�X����,2_1_1,2022/9/19,10:00,37,70
���X�X����,2_1_1,2022/9/19,11:00,35,38
���X�X����,2_1_1,2022/9/19,12:00,52,36
���X�X����,2_1_1,2022/9/19,13:00,24,29
���X�X����,2_1_1,2022/9/19,14:00,29,20
���X�X����,2_1_1,2022/9/19,15:00,29,39
���X�X����,2_1_1,2022/9/19,16:00,21,39
���X�X����,2_1_1,2022/9/19,17:00,53,43
���X�X����,2_1_1,2022/9/19,18:00,33,33
���X�X����,2_1_1,2022/9/19,19:00,19,14
���X�X����,2_1_1,2022/9/19,20:00,13,14
���X�X����,2_1_1,2022/9/19,21:00,11,6
���X�X����,2_1_1,2022/9/19,22:00,3,2
���X�X����,2_1_1,2022/9/19,23:00,4,0
���X�X����,2_1_1,2022/9/20,0:00,5,0
���X�X����,2_1_1,2022/9/20,1:00,0,2
���X�X����,2_1_1,2022/9/20,2:00,0,1
���X�X����,2_1_1,2022/9/20,3:00,1,3
���X�X����,2_1_1,2022/9/20,4:00,3,1
���X�X����,2_1_1,2022/9/20,5:00,13,7
���X�X����,2_1_1,2022/9/20,6:00,40,43
���X�X����,2_1_1,2022/9/20,7:00,85,281
���X�X����,2_1_1,2022/9/20,8:00,111,398
���X�X����,2_1_1,2022/9/20,9:00,130,152
���X�X����,2_1_1,2022/9/20,10:00,146,220
���X�X����,2_1_1,2022/9/20,11:00,166,262
���X�X����,2_1_1,2022/9/20,12:00,209,233
���X�X����,2_1_1,2022/9/20,13:00,199,189
���X�X����,2_1_1,2022/9/20,14:00,183,169
���X�X����,2_1_1,2022/9/20,15:00,203,154
���X�X����,2_1_1,2022/9/20,16:00,290,154
���X�X����,2_1_1,2022/9/20,17:00,356,152
���X�X����,2_1_1,2022/9/20,18:00,285,163
���X�X����,2_1_1,2022/9/20,19:00,105,110
���X�X����,2_1_1,2022/9/20,20:00,88,73
���X�X����,2_1_1,2022/9/20,21:00,88,33
���X�X����,2_1_1,2022/9/20,22:00,15,4
���X�X����,2_1_1,2022/9/20,23:00,3,0
���X�X����,2_1_1,2022/9/21,0:00,1,2
���X�X����,2_1_1,2022/9/21,1:00,4,0
���X�X����,2_1_1,2022/9/21,2:00,2,1
���X�X����,2_1_1,2022/9/21,3:00,3,1
���X�X����,2_1_1,2022/9/21,4:00,3,1
���X�X����,2_1_1,2022/9/21,5:00,12,3
���X�X����,2_1_1,2022/9/21,6:00,37,41
���X�X����,2_1_1,2022/9/21,7:00,89,382
���X�X����,2_1_1,2022/9/21,8:00,108,375
���X�X����,2_1_1,2022/9/21,9:00,103,159
���X�X����,2_1_1,2022/9/21,10:00,139,222
���X�X����,2_1_1,2022/9/21,11:00,199,266
���X�X����,2_1_1,2022/9/21,12:00,212,273
���X�X����,2_1_1,2022/9/21,13:00,235,237
���X�X����,2_1_1,2022/9/21,14:00,216,192
���X�X����,2_1_1,2022/9/21,15:00,277,160
���X�X����,2_1_1,2022/9/21,16:00,480,180
���X�X����,2_1_1,2022/9/21,17:00,308,186
���X�X����,2_1_1,2022/9/21,18:00,193,152
���X�X����,2_1_1,2022/9/21,19:00,128,89
���X�X����,2_1_1,2022/9/21,20:00,95,70
���X�X����,2_1_1,2022/9/21,21:00,72,26
���X�X����,2_1_1,2022/9/21,22:00,15,4
���X�X����,2_1_1,2022/9/21,23:00,5,1
���X�X����,2_1_1,2022/9/22,0:00,3,0
���X�X����,2_1_1,2022/9/22,1:00,1,0
���X�X����,2_1_1,2022/9/22,2:00,3,0
���X�X����,2_1_1,2022/9/22,3:00,3,3
���X�X����,2_1_1,2022/9/22,4:00,4,2
���X�X����,2_1_1,2022/9/22,5:00,10,6
���X�X����,2_1_1,2022/9/22,6:00,41,59
���X�X����,2_1_1,2022/9/22,7:00,89,405
���X�X����,2_1_1,2022/9/22,8:00,114,350
���X�X����,2_1_1,2022/9/22,9:00,139,220
���X�X����,2_1_1,2022/9/22,10:00,174,293
���X�X����,2_1_1,2022/9/22,11:00,201,293
���X�X����,2_1_1,2022/9/22,12:00,249,256
���X�X����,2_1_1,2022/9/22,13:00,221,234
���X�X����,2_1_1,2022/9/22,14:00,262,209
���X�X����,2_1_1,2022/9/22,15:00,236,173
���X�X����,2_1_1,2022/9/22,16:00,375,213
���X�X����,2_1_1,2022/9/22,17:00,448,184
���X�X����,2_1_1,2022/9/22,18:00,275,161
���X�X����,2_1_1,2022/9/22,19:00,135,124
���X�X����,2_1_1,2022/9/22,20:00,103,85
���X�X����,2_1_1,2022/9/22,21:00,101,32
���X�X����,2_1_1,2022/9/22,22:00,19,5
���X�X����,2_1_1,2022/9/22,23:00,2,2
���X�X����,2_1_1,2022/9/23,0:00,8,2
���X�X����,2_1_1,2022/9/23,1:00,4,1
���X�X����,2_1_1,2022/9/23,2:00,3,2
���X�X����,2_1_1,2022/9/23,3:00,0,1
���X�X����,2_1_1,2022/9/23,4:00,2,0
���X�X����,2_1_1,2022/9/23,5:00,4,6
���X�X����,2_1_1,2022/9/23,6:00,32,27
���X�X����,2_1_1,2022/9/23,7:00,69,85
���X�X����,2_1_1,2022/9/23,8:00,89,126
���X�X����,2_1_1,2022/9/23,9:00,147,272
���X�X����,2_1_1,2022/9/23,10:00,216,488
���X�X����,2_1_1,2022/9/23,11:00,260,566
���X�X����,2_1_1,2022/9/23,12:00,354,653
���X�X����,2_1_1,2022/9/23,13:00,484,587
���X�X����,2_1_1,2022/9/23,14:00,663,476
���X�X����,2_1_1,2022/9/23,15:00,563,390
���X�X����,2_1_1,2022/9/23,16:00,506,326
���X�X����,2_1_1,2022/9/23,17:00,454,312
���X�X����,2_1_1,2022/9/23,18:00,248,220
���X�X����,2_1_1,2022/9/23,19:00,174,115
���X�X����,2_1_1,2022/9/23,20:00,87,69
���X�X����,2_1_1,2022/9/23,21:00,88,47
���X�X����,2_1_1,2022/9/23,22:00,16,6
���X�X����,2_1_1,2022/9/23,23:00,8,2
���X�X����,2_1_1,2022/9/24,0:00,5,0
���X�X����,2_1_1,2022/9/24,1:00,3,1
���X�X����,2_1_1,2022/9/24,2:00,1,1
���X�X����,2_1_1,2022/9/24,3:00,2,1
���X�X����,2_1_1,2022/9/24,4:00,2,0
���X�X����,2_1_1,2022/9/24,5:00,9,4
���X�X����,2_1_1,2022/9/24,6:00,36,44
���X�X����,2_1_1,2022/9/24,7:00,50,111
���X�X����,2_1_1,2022/9/24,8:00,98,140
���X�X����,2_1_1,2022/9/24,9:00,179,388
���X�X����,2_1_1,2022/9/24,10:00,249,621
���X�X����,2_1_1,2022/9/24,11:00,368,692
���X�X����,2_1_1,2022/9/24,12:00,452,627
���X�X����,2_1_1,2022/9/24,13:00,609,561
���X�X����,2_1_1,2022/9/24,14:00,665,604
���X�X����,2_1_1,2022/9/24,15:00,672,409
���X�X����,2_1_1,2022/9/24,16:00,599,380
���X�X����,2_1_1,2022/9/24,17:00,486,299
���X�X����,2_1_1,2022/9/24,18:00,368,314
���X�X����,2_1_1,2022/9/24,19:00,185,168
���X�X����,2_1_1,2022/9/24,20:00,135,93
���X�X����,2_1_1,2022/9/24,21:00,105,39
���X�X����,2_1_1,2022/9/24,22:00,18,7
���X�X����,2_1_1,2022/9/24,23:00,12,6
���X�X����,2_1_1,2022/9/25,0:00,6,4
���X�X����,2_1_1,2022/9/25,1:00,4,0
���X�X����,2_1_1,2022/9/25,2:00,2,0
���X�X����,2_1_1,2022/9/25,3:00,1,2
���X�X����,2_1_1,2022/9/25,4:00,2,1
���X�X����,2_1_1,2022/9/25,5:00,5,5
���X�X����,2_1_1,2022/9/25,6:00,21,32
���X�X����,2_1_1,2022/9/25,7:00,51,69
���X�X����,2_1_1,2022/9/25,8:00,116,116
���X�X����,2_1_1,2022/9/25,9:00,114,274
���X�X����,2_1_1,2022/9/25,10:00,246,633
���X�X����,2_1_1,2022/9/25,11:00,584,675
���X�X����,2_1_1,2022/9/25,12:00,745,726
���X�X����,2_1_1,2022/9/25,13:00,624,564
���X�X����,2_1_1,2022/9/25,14:00,673,575
���X�X����,2_1_1,2022/9/25,15:00,613,379
���X�X����,2_1_1,2022/9/25,16:00,528,298
���X�X����,2_1_1,2022/9/25,17:00,334,202
���X�X����,2_1_1,2022/9/25,18:00,157,154
���X�X����,2_1_1,2022/9/25,19:00,125,100
���X�X����,2_1_1,2022/9/25,20:00,85,68
���X�X����,2_1_1,2022/9/25,21:00,57,37
���X�X����,2_1_1,2022/9/25,22:00,17,0
���X�X����,2_1_1,2022/9/25,23:00,12,2
���X�X����,2_1_1,2022/9/26,0:00,1,1
���X�X����,2_1_1,2022/9/26,1:00,1,2
���X�X����,2_1_1,2022/9/26,2:00,0,1
���X�X����,2_1_1,2022/9/26,3:00,3,1
���X�X����,2_1_1,2022/9/26,4:00,3,2